[[{"header":{"parameterUnit":"m.s-1","parameterCategory":1,"la1":30.2991,"la2":30.254,"lo1":-89.0895,"lo2":-89.0444,"dy":0.0017,"dx":0.0017,"nx":28,"ny":28,"refTime":"2025-07-08T03:00:00:Z","depth":0,"parameterNumber":2,"parameterNumberName":"U-component_of_WINDS"},"data":[0,0,0,0,0,0,0,0,0,0,0,0,0,0,0,0,0,0,0,0,0,0,0,0,0,0,0,0,0,0,0,0,0,0,0,0,0,0,0,0,0,0,0,0,0,0,0,0,0,0,0,0,0,0,0,0,0,0,2.0141,2.0143,0,2.0299,2.0301,2.0303,2.0336,2.0335,2.0334,2.0333,2.0497,2.0502,2.0507,0,0,0,0,0,0,0,0,0,0,0,0,0,1.9869,1.9874,2.0141,2.0143,2.0145,2.0299,2.0301,2.0303,2.0337,2.0335,2.0334,2.0333,2.0495,2.0501,2.0508,0,0,0,0,0,0,0,0,0,0,0,0,0,2.0003,1.9875,2.014,2.018,2.0185,2.0298,2.0301,2.0304,2.0337,2.0335,2.0333,2.0332,2.0493,2.0501,2.0509,2.0594,0,0,2.0533,2.0537,0,0,0,0,0,0,0,0,1.9995,2.0013,2.0172,2.0178,2.0183,2.0296,2.0265,2.0401,2.0337,2.0279,2.0333,2.0331,2.0431,2.0444,2.0478,2.0602,2.0609,2.0534,2.0539,2.0543,2.0545,0,0,0,0,0,0,0,1.9986,2.0006,2.0203,2.0175,2.0181,2.019,2.0207,2.0291,2.0363,2.0284,2.0287,2.0305,2.0434,2.047,2.0482,2.0611,2.0534,2.0541,2.0546,2.0549,2.0812,2.0814,0,0,0,0,0,0,1.997,1.9998,2.0198,2.0208,2.0083,2.0197,2.0216,2.0262,2.0362,2.0376,2.0307,2.0306,2.0457,2.0473,2.0488,2.0594,2.0543,2.055,2.0555,2.081,2.0812,2.0814,0,0,0,0,0,0,1.9964,1.9987,2.0192,2.0104,2.0131,2.0203,2.0255,2.0266,2.0302,2.0379,2.0393,2.033,2.0456,2.0476,2.0567,2.06,2.0554,2.0561,2.0807,2.081,2.0813,2.0806,0,0,0,0,0,0,1.9956,1.9985,2.0018,2.0105,2.0135,2.0268,2.0257,2.027,2.0316,2.0317,2.0405,2.0418,2.0456,2.0555,2.0575,2.061,2.0568,2.0805,2.0809,2.0812,2.0803,2.0808,2.0812,0,0,0,0,0,1.9946,2.001,2.0019,2.0043,2.0178,2.027,2.0288,2.033,2.0318,2.0352,2.0402,2.0415,2.0593,2.0564,2.0587,2.0625,2.0803,2.0807,2.0812,2.0801,2.0807,2.0812,0,0,0,0,0,0,1.9926,2.0022,2.0033,2.0127,2.019,2.0275,2.0319,2.0335,2.0403,2.0401,2.0452,2.0472,2.0559,2.0602,2.0567,2.0712,2.0697,2.0707,2.0681,2.0688,2.0692,2.068,2.0574,0,0,0,0,0,1.9932,1.9998,2.0079,2.0154,2.0185,2.0246,2.0288,2.0316,2.0383,2.041,2.0466,2.0531,2.0602,2.0647,2.0717,2.081,2.0829,2.0848,2.0852,2.0856,2.0863,2.0915,2.0923,2.083,2.083,2.083,0,0,1.9946,2.0007,2.0045,2.0151,2.0203,2.0271,2.0269,2.034,2.0391,2.0421,2.0509,2.0553,2.0629,2.0721,2.0764,2.0759,2.0893,2.0862,2.0864,2.0869,2.092,2.0929,2.0937,2.0833,2.0832,2.0832,0,0,2.0005,2.0058,2.0126,2.0178,2.0256,2.0297,2.0313,2.0396,2.0426,2.0515,2.0539,2.06,2.0721,2.0774,2.0817,2.0896,2.091,2.0917,2.094,2.099,2.0997,2.1004,2.1031,2.1041,2.0924,2.0924,2.0924,0,2.0013,2.0115,2.0159,2.023,2.0275,2.0305,2.0374,2.0422,2.0519,2.055,2.0543,2.0694,2.0748,2.0852,2.0871,2.0905,2.0925,2.0907,2.0993,2.1,2.1007,2.1033,2.1044,2.0925,2.0925,2.0925,2.0925,0,2.012,2.019,2.0236,2.0328,2.0379,2.0448,2.0503,2.0549,2.0573,2.0614,2.0704,2.0769,2.0852,2.0879,2.0903,2.0987,2.0981,2.0982,2.0968,2.1015,2.1041,2.1052,2.0925,2.0925,2.0925,2.0925,0,0,2.017,2.0286,2.0301,2.0343,2.0432,2.0487,2.0558,2.0638,2.0676,2.0743,2.0803,2.0904,2.0906,2.0954,2.0984,2.1028,2.1085,2.1025,2.1027,2.1032,2.1181,2.1178,2.1189,2.1096,2.1098,2.11,2.1174,0,2.0239,2.0366,2.0408,2.0513,2.0578,2.0607,2.0669,2.073,2.077,2.0832,2.0877,2.0948,2.0945,2.0975,2.1019,2.1069,2.1115,2.1064,2.1152,2.1154,2.1131,2.1203,2.12,2.1267,2.1184,2.1186,2.1187,0,2.0337,2.0404,2.0515,2.0594,2.0624,2.0678,2.0754,2.0813,2.0883,2.0909,2.0963,2.0989,2.1064,2.1046,2.115,2.1114,2.1153,2.1182,2.1186,2.1195,2.1173,2.1212,2.129,2.1299,2.1204,2.1203,2.1201,0,2.0361,2.0479,2.0561,2.0596,2.0691,2.0728,2.077,2.0838,2.0883,2.095,2.098,2.1055,2.1096,2.1154,2.12,2.1183,2.1299,2.1285,2.1323,2.1322,2.1345,2.1343,2.1429,2.1372,2.1372,2.1372,2.1371,0,2.0434,2.05,2.0573,2.0623,2.0698,2.0746,2.0819,2.0863,2.0923,2.0982,2.1012,2.1067,2.1125,2.1188,2.1224,2.1304,2.1323,2.1346,2.1355,2.1343,2.134,2.1368,2.1364,2.1374,2.1374,2.1373,2.1373,0,2.0473,2.0524,2.0615,2.0697,2.072,2.0772,2.0842,2.0892,2.0934,2.1008,2.1028,2.1094,2.1169,2.1221,2.1318,2.1342,2.1428,2.1437,2.1404,2.1408,2.1442,2.1438,2.1548,2.1565,2.1498,2.1498,2.1499,0,2.0515,2.0567,2.0655,2.0696,2.0738,2.0804,2.085,2.0899,2.0946,2.1029,2.1069,2.1146,2.121,2.1328,2.1385,2.1459,2.1469,2.1502,2.148,2.1466,2.1468,2.1464,2.1469,2.1505,2.1506,2.1506,2.1507,0,2.0584,2.0607,2.0672,2.0746,2.08,2.0861,2.0922,2.0954,2.1014,2.1065,2.1142,2.1191,2.1289,2.1365,2.1444,2.1488,2.1507,2.1513,2.1526,2.1513,2.1492,2.1503,2.1412,2.151,2.151,2.151,2.1509,2.1509,2.0626,2.0673,2.0742,2.0813,2.0864,2.092,2.0971,2.1019,2.1083,2.1166,2.1192,2.1271,2.134,2.1448,2.1492,2.1555,2.1552,2.1571,2.1575,2.1578,2.1577,2.1482,2.157,2.157,2.157,2.1569,2.1569,0,2.0695,2.0741,2.0806,2.089,2.0946,2.096,2.1028,2.1074,2.1143,2.1205,2.1267,2.1355,2.1429,2.1491,2.1567,2.1605,2.1616,2.1623,2.162,2.163,2.1576,2.1557,2.1613,2.1613,2.1613,2.1613,2.1613,2.1613,2.0738,2.0818,2.0849,2.0954,2.1,2.1078,2.1115,2.1167,2.1217,2.1313,2.1374,2.1414,2.1476,2.1557,2.1625,2.1641,2.1667,2.1672,2.169,2.1639,2.1634,2.1629,2.1611,2.1678,2.1678,2.1739,2.174,2.174]},{"header":{"parameterUnit":"m.s-1","parameterCategory":1,"la1":30.2991,"la2":30.254,"lo1":-89.0895,"lo2":-89.0444,"dy":0.0017,"dx":0.0017,"nx":28,"ny":28,"refTime":"2025-07-08T03:00:00:Z","depth":0,"parameterNumber":3,"parameterNumberName":"V-component_of_WINDS"},"data":[0,0,0,0,0,0,0,0,0,0,0,0,0,0,0,0,0,0,0,0,0,0,0,0,0,0,0,0,0,0,0,0,0,0,0,0,0,0,0,0,0,0,0,0,0,0,0,0,0,0,0,0,0,0,0,0,0,0,4.8636,4.8636,0,4.8653,4.8653,4.8653,4.8602,4.8601,4.8599,4.8597,4.8612,4.8614,4.8616,0,0,0,0,0,0,0,0,0,0,0,0,0,4.8556,4.8558,4.8636,4.8636,4.8637,4.8653,4.8653,4.8654,4.8602,4.86,4.8599,4.8597,4.8612,4.8614,4.8616,0,0,0,0,0,0,0,0,0,0,0,0,0,4.8584,4.8558,4.8636,4.8613,4.8611,4.8653,4.8653,4.8654,4.8603,4.86,4.8598,4.8596,4.8611,4.8614,4.8616,4.868,0,0,4.8625,4.8626,0,0,0,0,0,0,0,0,4.8582,4.8587,4.8616,4.8615,4.8613,4.8623,4.863,4.8662,4.8603,4.8606,4.8597,4.8595,4.8618,4.862,4.8628,4.8681,4.8682,4.8625,4.8627,4.8628,4.8629,0,0,0,0,0,0,0,4.858,4.8586,4.8643,4.8617,4.8615,4.8601,4.8602,4.8636,4.8625,4.8605,4.8602,4.8605,4.8616,4.8625,4.8628,4.8682,4.8625,4.8628,4.8629,4.863,4.8787,4.8789,0,0,0,0,0,0,4.8582,4.8584,4.8642,4.8643,4.8591,4.8604,4.8606,4.8622,4.8624,4.8622,4.8607,4.8602,4.8622,4.8625,4.8628,4.8702,4.8628,4.8631,4.8632,4.8785,4.8788,4.879,0,0,0,0,0,0,4.858,4.8588,4.8641,4.8613,4.8619,4.8608,4.8627,4.8624,4.8633,4.8625,4.8622,4.8618,4.862,4.8624,4.8668,4.8702,4.8632,4.8634,4.8782,4.8785,4.8789,4.8851,0,0,0,0,0,0,4.8578,4.8587,4.8612,4.8614,4.862,4.8682,4.8629,4.8626,4.8638,4.8632,4.8635,4.8634,4.8619,4.8664,4.867,4.8705,4.8637,4.8778,4.8783,4.8788,4.8846,4.8857,4.8866,0,0,0,0,0,4.8576,4.8629,4.8614,4.8621,4.8652,4.8684,4.8687,4.867,4.8641,4.8665,4.866,4.8633,4.8698,4.8669,4.8676,4.8711,4.8776,4.8782,4.8787,4.8842,4.8855,4.8866,0,0,0,0,0,0,4.8631,4.8629,4.8612,4.8668,4.8677,4.8675,4.8705,4.8684,4.8701,4.8695,4.8671,4.8672,4.872,4.872,4.8688,4.8773,4.8732,4.8739,4.8771,4.8783,4.8793,4.8791,4.8639,0,0,0,0,0,4.865,4.8677,4.8673,4.8723,4.8728,4.8716,4.873,4.8715,4.8723,4.8726,4.8724,4.8732,4.8754,4.8768,4.8788,4.8846,4.8845,4.8874,4.8884,4.8892,4.8898,4.8928,4.894,4.8809,4.8809,4.8809,0,0,4.8689,4.8691,4.8709,4.8734,4.8739,4.8767,4.872,4.8751,4.8771,4.8731,4.8771,4.877,4.8777,4.8828,4.8851,4.883,4.8935,4.8899,4.8906,4.8908,4.8935,4.8947,4.8958,4.8813,4.8812,4.8811,0,0,4.8773,4.8779,4.882,4.8826,4.8834,4.8826,4.8836,4.8838,4.8836,4.8877,4.8847,4.887,4.8908,4.8914,4.8922,4.9008,4.8984,4.9016,4.9067,4.9096,4.9106,4.9115,4.9145,4.9156,4.9022,4.9022,4.9022,0,4.882,4.8862,4.8843,4.8877,4.8888,4.8853,4.8894,4.8901,4.8915,4.8923,4.89,4.8946,4.8949,4.9,4.9021,4.9029,4.9039,4.9014,4.9106,4.9115,4.9123,4.9151,4.9162,4.9026,4.9025,4.9025,4.9025,0,4.8918,4.8947,4.8979,4.8995,4.9009,4.9046,4.9032,4.9049,4.9034,4.9027,4.9069,4.9071,4.9089,4.9101,4.9086,4.915,4.9136,4.911,4.9068,4.914,4.9165,4.9176,4.9031,4.903,4.9029,4.9028,0,0,4.9037,4.9042,4.9054,4.906,4.9067,4.9088,4.9123,4.9143,4.9157,4.9168,4.9196,4.9229,4.9205,4.9214,4.9199,4.9225,4.9292,4.9195,4.9195,4.9212,4.9361,4.938,4.9392,4.9276,4.9278,4.928,4.936,0,4.912,4.918,4.9164,4.9224,4.925,4.9218,4.9248,4.9255,4.925,4.927,4.9265,4.9288,4.9255,4.926,4.9284,4.9279,4.9321,4.9273,4.93,4.9302,4.9298,4.9406,4.9426,4.9502,4.937,4.9372,4.9373,0,4.9224,4.9239,4.9302,4.9304,4.9314,4.9342,4.9357,4.9378,4.9384,4.9379,4.9389,4.9369,4.9402,4.9362,4.9406,4.9374,4.9384,4.9383,4.9386,4.9386,4.9341,4.9409,4.9525,4.9536,4.9389,4.9388,4.9386,0,4.9303,4.934,4.9381,4.9388,4.9391,4.9411,4.9413,4.9418,4.943,4.9444,4.9451,4.9469,4.9478,4.9491,4.9476,4.9448,4.9523,4.9481,4.9518,4.9518,4.9534,4.9533,4.9653,4.9543,4.9543,4.9543,4.9542,0,4.9396,4.9435,4.9417,4.9443,4.9485,4.9466,4.9508,4.9507,4.9511,4.9535,4.9508,4.9531,4.951,4.9531,4.9519,4.9557,4.9562,4.9558,4.9554,4.9559,4.956,4.9565,4.9559,4.9546,4.9545,4.9544,4.9544,0,4.9491,4.9481,4.9524,4.9524,4.9525,4.9556,4.9555,4.9578,4.9572,4.9602,4.9608,4.9598,4.962,4.9607,4.963,4.9622,4.9672,4.9661,4.967,4.9666,4.9704,4.97,4.983,4.9846,4.9727,4.9728,4.9729,0,4.955,4.958,4.9583,4.9597,4.9602,4.9625,4.9638,4.962,4.9634,4.9644,4.9665,4.9686,4.9702,4.974,4.9733,4.9751,4.974,4.9784,4.9742,4.9747,4.9739,4.9737,4.9739,4.9792,4.9794,4.9795,4.9796,0,4.9656,4.965,4.9669,4.9687,4.9703,4.9716,4.9726,4.9739,4.9721,4.9738,4.9762,4.9774,4.9798,4.9818,4.9833,4.9834,4.9812,4.9809,4.9819,4.9824,4.9827,4.9825,4.9691,4.9806,4.9805,4.9804,4.9804,4.9803,4.9734,4.9759,4.9765,4.9787,4.9793,4.9803,4.9825,4.9821,4.9841,4.9859,4.9847,4.9875,4.988,4.9897,4.9901,4.9922,4.9904,4.9918,4.9921,4.9924,4.9929,4.9825,4.9925,4.9924,4.9924,4.9924,4.9923,0,4.9838,4.984,4.9861,4.9877,4.9894,4.9872,4.9883,4.9898,4.9923,4.993,4.9946,4.9973,4.9992,4.9988,5.0005,5.0023,5.0013,5.0028,5.0025,5.0026,4.9945,4.9934,5.0035,5.0035,5.0035,5.0035,5.0035,5.0035,4.9894,4.9933,4.9927,4.9969,4.9971,4.9998,5.0005,5.0014,5.002,5.0051,5.0067,5.0065,5.0067,5.0084,5.0101,5.0099,5.0106,5.0125,5.0119,5.0043,5.0032,5.0021,5.0011,5.0127,5.0127,5.0198,5.0199,5.02]}]]